METEOR 2-8 DEB

Satellite information

Favourite Embed

Satellite Type and Status

DEBRISIN ORBIT

Key statistics

Satellite METEOR 2-8 DEB at a glance.

Uptime

15870

Days in orbit

Revolutions

≈ 14.3

Per day

Orbit

LEO

Low Earth Orbit

Inclination

82.5

Latest

Satellite identification and parameters

Extended collection of information and parameters for METEOR 2-8 DEB.

Object identification

Identified? True

Debris? True

Object name: METEOR 2-8 DEB

International designator: 1982-025AL

Object number (NORAD): 36350

Object ID (CCSDS): 36350

Country: COMMONWEALTH OF INDEPENDENT STATES (CIS)

Current information (Y/N): Y

RCS size: SMALL

Orbital parameters

Period: 100.516 minutes

Inclination: 82.5161 deg

SMA: 7161.186 km

Apoapsis: 794.83 km

Periapsis: 771.272 km

RAAN: 52.1153 deg

Eccentricy: 0.00164484

Argument of periapsis: 153.2623 deg

Mean anomaly: 206.9416 deg

Mean motion: 14.32601383 rev/day

Mean motion (dot): 0.00011146 rev/day2

B* drag term: 0.0040901659 1/REarth

Two-line elements (TLE)

Creation date: Sept. 1, 2025, 2:20 a.m.

Reference frame: TEME

Reference center: EARTH

Epoch: Aug. 31, 2025, 5:06 p.m. UTC

TLE line 0: 0 METEOR 2-8 DEB

TLE line 1: 1 36350U 82025AL 25243.71255589 .00011146 00000-0 40902-2 0 9992

TLE line 2: 2 36350 82.5161 52.1153 0016448 153.2623 206.9416 14.32601383630765

Live tracking on map

Real-time ground track for satellite METEOR 2-8 DEB.

In-orbit conjunctions

A list of the most updated potential collisions computed for object METEOR 2-8 DEB.

Target Orbit TCA Probability of collision Miss distance Type
NOAA 16 DEB SSO 2025-07-13 12:04:17 0.000652116 63.0 (m) DEBRIS
NOAA 16 DEB SSO 2025-02-04 08:29:31 0.0001144348 153.0 (m) DEBRIS
FENGYUN 1C DEB SSO 2024-07-03 23:07:54 0.0001334058 77.0 (m) DEBRIS

Associated space launch

Second generation soviet meteorological satellite

METEOR 2-8 DEB was lifted into orbit during the mission ‘Tsiklon-3 | Meteor-2 8’, on board a Tsiklon-3 space rocket.

The launch took place on March 25, 1982, 9:50 a.m. from 32/1.

For more information about the launch, click the button.

Launch to space Tsiklon-3 | Meteor-2 8
Tsiklon-3 | Meteor-2 8

Agency: N/A

Status: Launch Successful

Launch date: March 25, 1982, 9:50 a.m. UTC

Rocket: Tsiklon-3

Launch pad: 32/1

Location: Plesetsk Cosmodrome, Russian Federation

...

Latest news about this satellite

There are no fresh news available about this satellite. Check back as we update our databases every day.


Newsletter sign-up

Weekly statistics, charts and insights to help you stay on top of the space industry.